This demonstration page uses our WeatherBlox Daily Observations layout. Learn more.

Left ArrowRight Arrow

41.55636, -103.73856

Hourly Observations for December 8, 2020

Temp ( °F °C ) Dew Point ( °F °C ) Humidity (%) Winds ( mph kmh ) Pressure ( in mb ) Visibility ( mi km ) Precip ( " mm )
12:58 am 00:58 Mostly Clear 31 -0.5 4 -15.7 31 31 WSW 9 15 30.31 1026 10 16 0.00 0.00
1:58 am 01:58 Mostly Cloudy 36 2.3 5 -15.1 27 27 WSW 8 13 30.30 1026 10 16 0.00 0.00
2:58 am 02:58 Mostly Cloudy 35 1.6 3 -15.9 26 26 SW 8 13 30.29 1026 10 16 0.00 0.00
3:58 am 03:58 Partly Cloudy 34 1.1 2 -16.7 25 25 SW 8 13 30.30 1026 10 16 0.00 0.00
4:58 am 04:58 Mostly Cloudy 33 0.5 1 -17.4 25 25 WSW 9 15 30.32 1027 10 16 0.00 0.00
5:58 am 05:58 Clear 37 2.9 -1 -18.2 20 20 W 7 11 30.32 1027 10 16 0.00 0.00
6:58 am 06:58 Clear 37 2.8 0 -18 20 20 W 9 15 30.33 1027 10 16 0.00 0.00
7:58 am 07:58 Sunny 40 4.7 0 -17.9 18 18 W 10 17 30.30 1026 10 16 0.00 0.00
8:58 am 08:58 Sunny 47 8.4 -1 -18.5 13 13 WNW 20 31 30.28 1026 10 16 0.00 0.00
9:58 am 09:58 Sunny 51 10.6 0 -18 12 12 WNW 24 39 30.26 1025 10 16 0.00 0.00
10:58 am 10:58 Sunny 56 13.2 1 -17.2 11 11 WNW 21 33 30.22 1023 10 16 0.00 0.00
11:58 am 11:58 Sunny 61 16.1 1 -17 9 9 NW 20 31 30.19 1022 10 16 0.00 0.00
12:58 pm 12:58 Sunny 62 16.6 1 -17.2 8 8 NW 22 35 30.16 1021 10 16 0.00 0.00
1:58 pm 13:58 Sunny 63 17 1 -17.3 8 8 NW 20 31 30.12 1020 10 16 0.00 0.00
2:58 pm 14:58 Sunny 62 16.9 0 -18 8 8 NW 18 30 30.12 1020 10 16 0.00 0.00
3:58 pm 15:58 Sunny 60 15.3 1 -17.5 9 9 WNW 14 22 30.14 1021 10 16 0.00 0.00
4:58 pm 16:58 Clear 54 12.2 1 -17.2 11 11 W 12 19 30.18 1022 10 16 0.00 0.00
5:58 pm 17:58 Clear 44 6.5 1 -17.4 16 16 W 6 9 30.20 1023 10 16 0.00 0.00
6:58 pm 18:58 Clear 45 7.2 2 -16.9 16 16 WSW 8 13 30.21 1023 10 16 0.00 0.00
7:58 pm 19:58 Clear 41 5 2 -16.7 19 19 W 12 19 30.21 1023 10 16 0.00 0.00
8:58 pm 20:58 Clear 41 5.2 3 -16.3 20 20 W 13 20 30.20 1023 10 16 0.00 0.00
9:58 pm 21:58 Clear 39 3.7 2 -16.4 22 22 WSW 10 17 30.20 1023 10 16 0.00 0.00
10:58 pm 22:58 Clear 41 5.2 2 -16.5 19 19 W 12 19 30.17 1022 10 16 0.00 0.00
11:58 pm 23:58 Clear 44 6.4 1 -17 17 17 W 7 11 30.16 1022 10 16 0.00 0.00

Powered by AerisWeather